QPF
0.00 0.00 0.00 0.00 0.00 0.00 0.00 0.00 0.00 0.00 0.00 0.00 0.00 0.00 0.00 0.00 0.00 0.00 0.00 0.00 0.00 0.00 0.00 0.00 0.00 0.00 0.00 0.00 0.00 0.00 0.00 0.00 0.00 0.00 0.00 0.00 0.00 0.00 0.00 0.00 0.00 0.00 0.00
0.00 0.00 0.00 0.00 0.00 0.00 0.00 0.00 0.00 0.00 0.00 0.00 0.00 0.00 0.00 0.00 0.00 0.00 0.00 0.00 0.00 0.00 0.00 0.00 0.00 0.00 0.00 0.00 0.00 0.00 0.00 0.00 0.00 0.00 0.00 0.00 0.00 0.00 0.00 0.00 0.00 0.00 0.00
0.00 0.00 0.00 0.00 0.00 0.00 0.00 0.00 0.00 0.00 0.00 0.00 0.00 0.00 0.00 0.00 0.00 0.00 0.00 0.00 0.00 0.00 0.00 0.00 0.00 0.00 0.00 0.00 0.00 0.00 0.00 0.00 0.00 0.00 0.00 0.00 0.00 0.00 0.00 0.00 0.00 0.00 0.00
0.00 0.00 0.00 0.00 0.00 0.00 0.00 0.00 0.00 0.00 0.00 0.00 0.00 0.00 0.00 0.00 0.00 0.00 0.00 0.00 0.00 0.00 0.00 0.00 0.00 0.00 0.00 0.00 0.00 0.00 0.00 0.00 0.00 0.00 0.00 0.00 0.00 0.00 0.00 0.00 0.00 0.00 0.00
0.00 0.00 0.00 0.00 0.00 0.00 0.00 0.00 0.00 0.00 0.00 0.00 0.00 0.00 0.00 0.00 0.00 0.00 0.00 0.00 0.00 0.00 0.00 0.00 0.00 0.00 0.00 0.00 0.00 0.00 0.00 0.00 0.00 0.00 0.00 0.00 0.00 0.00 0.00 0.00 0.00 0.00 0.00
0.00 0.00 0.00 0.00 0.00 0.00 0.00 0.00 0.00 0.00 0.00 0.00 0.00 0.00 0.00 0.00 0.00 0.00 0.00 0.00 0.00 0.00 0.00 0.00 0.00 0.00 0.00 0.00 0.00 0.00 0.00 0.00 0.00 0.00 0.00 0.00 0.00 0.00 0.00 0.00 0.00 0.00 0.00
0.00 0.00 0.00 0.00 0.00 0.00 0.00 0.00 0.00 0.00 0.00 0.00 0.00 0.00 0.00 0.00 0.00 0.00 0.00 0.00 0.00 0.00 0.00 0.00 0.00 0.00 0.00 0.00 0.00 0.00 0.00 0.00 0.00 0.00 0.00 0.00 0.00 0.00 0.00 0.00 0.00 0.00 0.00
0.00 0.00 0.00 0.00 0.00 0.00 0.00 0.00 0.00 0.00 0.00 0.00 0.00 0.00 0.00 0.00 0.00 0.00 0.00 0.00 0.00 0.00 0.00 0.00 0.00 0.00 0.00 0.00 0.00 0.00 0.00 0.00 0.00 0.00 0.00 0.00 0.00 0.00 0.00 0.00 0.00 0.00 0.00
0.01 0.00 0.00 0.00 0.00 0.00 0.00 0.00 0.00 0.00 0.00 0.00 0.00 0.00 0.00 0.00 0.00 0.00 0.00 0.00 0.00 0.00 0.00 0.00 0.00 0.00 0.00 0.00 0.00 0.00 0.00 0.00 0.00 0.00 0.00 0.00 0.00 0.00 0.00 0.00 0.00 0.00 0.00
0.01 0.00 0.00 0.00 0.00 0.00 0.00 0.00 0.00 0.00 0.00 0.00 0.00 0.00 0.00 0.00 0.00 0.00 0.00 0.00 0.00 0.00 0.00 0.00 0.00 0.00 0.00 0.00 0.00 0.00 0.00 0.00 0.00 0.00 0.00 0.00 0.00 0.00 0.00 0.00 0.00 0.00 0.00
0.02 0.01 0.01 0.00 0.00 0.00 0.00 0.00 0.00 0.00 0.00 0.00 0.00 0.00 0.00 0.00 0.00 0.00 0.00 0.00 0.00 0.00 0.00 0.00 0.00 0.00 0.00 0.00 0.00 0.00 0.00 0.00 0.00 0.00 0.00 0.00 0.00 0.00 0.00 0.00 0.00 0.00 0.00
0.03 0.02 0.01 0.01 0.00 0.00 0.00 0.00 0.00 0.00 0.00 0.00 0.00 0.00 0.00 0.00 0.00 0.00 0.00 0.00 0.00 0.00 0.00 0.00 0.00 0.00 0.00 0.00 0.00 0.00 0.00 0.00 0.00 0.00 0.00 0.00 0.00 0.00 0.00 0.00 0.00 0.00 0.00
0.01 0.01 0.01 0.01 0.01 0.00 0.00 0.00 0.00 0.00 0.00 0.00 0.00 0.00 0.00 0.00 0.00 0.00 0.00 0.00 0.00 0.00 0.00 0.00 0.00 0.00 0.00 0.00 0.00 0.00 0.00 0.00 0.00 0.00 0.00 0.00 0.00 0.00 0.00 0.00 0.00 0.00 0.00
0.01 0.01 0.01 0.01 0.01 0.00 0.00 0.00 0.00 0.00 0.00 0.00 0.00 0.00 0.00 0.00 0.00 0.00 0.00 0.00 0.00 0.00 0.00 0.00 0.00 0.00 0.00 0.00 0.00 0.00 0.00 0.00 0.00 0.00 0.00 0.00 0.00 0.00 0.00 0.00 0.00 0.00 0.00
0.01 0.01 0.01 0.01 0.01 0.00 0.00 0.00 0.00 0.00 0.00 0.00 0.00 0.00 0.00 0.00 0.00 0.00 0.00 0.00 0.00 0.00 0.00 0.00 0.00 0.00 0.00 0.00 0.00 0.00 0.00 0.00 0.00 0.00 0.00 0.00 0.00 0.00 0.00 0.00 0.00 0.00 0.00
0.00 0.01 0.02 0.01 0.01 0.00 0.00 0.00 0.00 0.00 0.00 0.00 0.00 0.00 0.00 0.00 0.00 0.00 0.00 0.00 0.00 0.00 0.00 0.00 0.00 0.00 0.00 0.00 0.00 0.00 0.00 0.00 0.00 0.00 0.00 0.00 0.00 0.00 0.00 0.00 0.00 0.00 0.00
0.01 0.01 0.01 0.01 0.00 0.00 0.00 0.00 0.00 0.00 0.00 0.00 0.00 0.00 0.00 0.00 0.00 0.00 0.00 0.00 0.00 0.00 0.00 0.00 0.00 0.00 0.00 0.00 0.00 0.00 0.00 0.00 0.00 0.00 0.00 0.00 0.00 0.00 0.00 0.00 0.00 0.00 0.00
0.02 0.01 0.01 0.00 0.00 0.00 0.00 0.00 0.00 0.00 0.00 0.00 0.00 0.00 0.00 0.00 0.00 0.00 0.00 0.00 0.00 0.00 0.00 0.00 0.00 0.00 0.00 0.00 0.00 0.00 0.00 0.00 0.00 0.00 0.00 0.00 0.00 0.00 0.00 0.00 0.00 0.00 0.00
0.01 0.01 0.00 0.00 0.00 0.00 0.00 0.00 0.00 0.00 0.00 0.00 0.00 0.00 0.00 0.00 0.00 0.00 0.00 0.00 0.00 0.00 0.00 0.00 0.00 0.00 0.00 0.00 0.00 0.00 0.00 0.00 0.00 0.00 0.00 0.00 0.00 0.00 0.00 0.00 0.00 0.00 0.00
0.01 0.00 0.00 0.00 0.00 0.00 0.00 0.00 0.00 0.00 0.00 0.00 0.00 0.00 0.00 0.00 0.00 0.00 0.00 0.00 0.00 0.00 0.00 0.00 0.00 0.00 0.00 0.00 0.00 0.00 0.00 0.00 0.00 0.00 0.00 0.00 0.00 0.00 0.00 0.00 0.00 0.00 0.00
0.01 0.00 0.00 0.00 0.00 0.00 0.00 0.00 0.00 0.00 0.00 0.00 0.00 0.00 0.00 0.00 0.00 0.00 0.00 0.00 0.00 0.00 0.00 0.00 0.00 0.00 0.00 0.00 0.00 0.00 0.00 0.00 0.00 0.00 0.00 0.00 0.00 0.00 0.00 0.00 0.00 0.00 0.00
0.00 0.00 0.00 0.00 0.00 0.00 0.00 0.00 0.00 0.00 0.00 0.00 0.00 0.00 0.00 0.00 0.00 0.00 0.00 0.00 0.00 0.00 0.00 0.00 0.00 0.00 0.00 0.00 0.00 0.00 0.00 0.00 0.00 0.00 0.00 0.00 0.00 0.00 0.00 0.00 0.00 0.00 0.00
0.00 0.00 0.00 0.00 0.00 0.00 0.00 0.00 0.00 0.00 0.00 0.00 0.00 0.00 0.00 0.00 0.00 0.00 0.00 0.00 0.00 0.00 0.00 0.00 0.00 0.00 0.00 0.00 0.00 0.00 0.00 0.00 0.00 0.00 0.00 0.00 0.00 0.00 0.00 0.00 0.00 0.00 0.00
0.00 0.00 0.00 0.00 0.00 0.00 0.00 0.00 0.00 0.00 0.00 0.00 0.00 0.00 0.00 0.00 0.00 0.00 0.00 0.00 0.00 0.00 0.00 0.00 0.00 0.00 0.00 0.00 0.00 0.00 0.00 0.00 0.00 0.00 0.00 0.00 0.00 0.00 0.00 0.00 0.00 0.00 0.00
0.00 0.00 0.00 0.00 0.00 0.00 0.00 0.00 0.00 0.00 0.00 0.00 0.00 0.00 0.00 0.00 0.00 0.00 0.00 0.00 0.00 0.00 0.00 0.00 0.00 0.00 0.00 0.00 0.00 0.00 0.00 0.00 0.00 0.00 0.00 0.00 0.00 0.00 0.00 0.00 0.00 0.00 0.00
0.00 0.00 0.00 0.00 0.00 0.00 0.00 0.00 0.00 0.00 0.00 0.00 0.00 0.00 0.00 0.00 0.00 0.00 0.00 0.00 0.00 0.00 0.00 0.00 0.00 0.00 0.00 0.00 0.00 0.00 0.00 0.00 0.00 0.00 0.00 0.00 0.00 0.00 0.00 0.00 0.00 0.00 0.00
MSLP
1016.28 1016.38 1016.79 1017.16 1017.45 1017.68 1017.89 1018.16 1018.33 1018.38 1018.51 1018.64 1018.77 1018.82 1019.06 1019.24 1019.59 1019.63 1019.71 1019.39 1019.66 1019.57 1019.78 1019.91 1020.06 1020.11 1020.09 1020.11 1020.01 1019.95 1019.92 1019.85 1019.71 1019.63 1019.56 1019.48 1019.28 1019.09 1018.91 1018.71 1018.55 1018.34 1018.25
1015.50 1016.08 1016.57 1016.98 1017.38 1017.45 1017.75 1018.04 1018.34 1018.58 1018.78 1018.78 1018.84 1018.94 1019.18 1019.34 1019.67 1019.79 1019.88 1019.79 1019.96 1019.88 1019.95 1020.18 1020.32 1020.39 1020.29 1020.26 1020.15 1020.07 1020.03 1020.00 1019.91 1019.78 1019.59 1019.53 1019.37 1019.16 1019.02 1018.79 1018.59 1018.41 1018.23
1015.16 1015.80 1016.45 1017.16 1017.41 1017.48 1017.79 1018.04 1018.33 1018.65 1018.96 1018.94 1019.05 1019.13 1019.23 1019.32 1019.58 1019.97 1020.09 1020.18 1020.28 1020.16 1020.15 1020.34 1020.46 1020.43 1020.42 1020.32 1020.18 1020.15 1020.12 1020.09 1020.09 1020.00 1019.78 1019.58 1019.44 1019.21 1019.05 1018.80 1018.57 1018.38 1018.15
1014.73 1015.58 1016.28 1016.90 1017.04 1017.51 1018.01 1018.28 1018.60 1018.99 1019.23 1019.29 1019.44 1019.43 1019.37 1019.33 1019.54 1019.84 1020.17 1020.39 1020.41 1020.49 1020.46 1020.53 1020.54 1020.52 1020.52 1020.39 1020.23 1020.19 1020.09 1020.13 1020.16 1020.03 1019.88 1019.69 1019.50 1019.25 1019.01 1018.72 1018.48 1018.25 1018.06
1014.60 1015.15 1015.94 1016.44 1016.74 1017.41 1018.04 1018.30 1018.80 1019.06 1019.56 1019.60 1019.57 1019.55 1019.58 1019.53 1019.47 1019.65 1020.13 1020.29 1020.29 1020.50 1020.64 1020.50 1020.54 1020.65 1020.60 1020.54 1020.41 1020.28 1020.15 1020.19 1020.16 1020.03 1019.90 1019.73 1019.50 1019.22 1018.93 1018.60 1018.32 1018.10 1017.86
1014.28 1015.04 1015.80 1016.25 1016.81 1017.46 1017.95 1018.34 1018.78 1019.35 1019.76 1019.82 1019.68 1019.76 1019.71 1019.58 1019.58 1019.78 1019.90 1019.95 1020.16 1020.26 1020.41 1020.54 1020.73 1020.80 1020.65 1020.64 1020.57 1020.52 1020.29 1020.14 1020.14 1020.03 1019.90 1019.66 1019.52 1019.25 1018.92 1018.56 1018.24 1017.95 1017.65
1013.85 1014.65 1015.46 1016.16 1016.80 1017.25 1017.78 1018.18 1018.85 1019.47 1020.02 1019.91 1020.09 1020.23 1020.15 1019.92 1019.82 1019.73 1019.80 1019.98 1020.14 1020.20 1020.29 1020.55 1020.79 1020.79 1020.68 1020.58 1020.63 1020.50 1020.22 1020.15 1020.10 1019.94 1019.81 1019.60 1019.38 1019.10 1018.72 1018.33 1017.99 1017.64 1017.31
1013.66 1014.20 1015.11 1016.01 1016.68 1017.14 1017.72 1018.04 1018.47 1019.45 1020.06 1020.06 1020.40 1020.82 1020.80 1020.59 1020.14 1019.99 1020.01 1020.06 1020.21 1020.28 1020.39 1020.50 1020.60 1020.58 1020.54 1020.60 1020.55 1020.26 1020.23 1020.19 1020.01 1019.78 1019.62 1019.36 1019.05 1018.72 1018.37 1017.93 1017.53 1017.17 1016.83
1013.49 1013.80 1014.78 1015.62 1016.36 1016.93 1017.55 1017.88 1018.34 1018.84 1019.80 1020.29 1020.22 1020.41 1020.97 1021.14 1021.15 1020.49 1020.34 1020.34 1020.44 1020.59 1020.73 1020.73 1020.59 1020.48 1020.39 1020.41 1020.27 1020.18 1020.09 1020.00 1019.81 1019.56 1019.33 1019.04 1018.75 1018.40 1017.90 1017.41 1016.97 1016.59 1016.22
1013.05 1013.89 1014.81 1015.52 1016.27 1016.88 1017.45 1017.84 1018.23 1018.69 1019.13 1019.99 1020.32 1020.26 1020.40 1020.73 1021.29 1021.43 1020.94 1020.69 1020.69 1020.72 1020.85 1020.80 1020.68 1020.58 1020.46 1020.31 1020.04 1019.92 1019.82 1019.70 1019.47 1019.21 1018.97 1018.72 1018.38 1017.89 1017.39 1016.89 1016.40 1016.00 1015.91
1013.22 1013.56 1014.91 1015.42 1016.08 1016.71 1017.26 1017.69 1018.31 1018.42 1019.05 1019.59 1020.01 1020.43 1020.68 1020.87 1021.10 1021.65 1021.78 1021.34 1020.93 1020.64 1020.66 1020.72 1020.62 1020.47 1020.36 1020.10 1020.01 1019.88 1019.52 1019.32 1019.11 1018.92 1018.65 1018.29 1017.88 1017.38 1016.86 1016.26 1015.91 1015.63 1015.53
1013.33 1013.82 1014.63 1015.28 1015.72 1016.57 1017.06 1017.53 1018.15 1018.51 1019.13 1019.47 1019.87 1020.24 1020.59 1020.99 1021.38 1021.67 1022.07 1021.89 1021.63 1021.01 1020.78 1020.56 1020.50 1020.49 1020.44 1020.28 1019.95 1019.64 1019.52 1019.31 1019.04 1018.76 1018.39 1017.97 1017.48 1016.98 1016.35 1015.89 1015.65 1015.35 1015.15
1013.20 1013.74 1014.45 1015.18 1015.75 1016.59 1017.08 1017.64 1018.12 1018.52 1019.25 1019.57 1019.93 1020.43 1020.63 1020.92 1021.11 1021.43 1021.85 1021.98 1022.05 1021.41 1020.95 1020.53 1020.35 1020.41 1020.30 1020.40 1020.21 1019.80 1019.56 1019.29 1018.98 1018.58 1018.05 1017.51 1016.98 1016.47 1016.03 1015.71 1015.42 1015.00 1014.66
1012.27 1013.51 1014.43 1015.28 1016.10 1016.70 1017.09 1017.74 1018.21 1018.67 1019.30 1019.52 1019.86 1020.24 1020.59 1020.87 1021.12 1021.36 1021.67 1022.14 1022.22 1021.91 1021.28 1020.85 1020.34 1020.32 1020.28 1020.14 1019.76 1019.40 1019.37 1019.02 1018.67 1018.18 1017.59 1017.03 1016.52 1016.20 1015.89 1015.50 1014.92 1014.59 1014.15
1012.80 1013.41 1014.37 1015.36 1016.22 1016.74 1017.16 1017.57 1018.27 1018.80 1019.35 1019.62 1019.88 1020.23 1020.56 1020.84 1021.11 1021.29 1021.48 1021.83 1022.19 1022.28 1021.49 1020.88 1020.74 1020.09 1020.04 1019.91 1019.59 1019.18 1019.01 1018.69 1018.11 1017.57 1017.04 1016.51 1016.06 1015.70 1015.26 1014.71 1014.21 1013.89 1013.51
1012.96 1013.40 1014.46 1015.47 1016.09 1016.94 1017.16 1017.85 1018.48 1018.96 1019.32 1019.61 1019.89 1020.20 1020.44 1020.71 1021.03 1021.19 1021.31 1021.52 1021.80 1021.96 1021.78 1020.80 1020.52 1020.18 1019.87 1019.46 1019.14 1018.77 1018.54 1018.02 1017.60 1016.95 1016.38 1015.89 1015.43 1014.87 1014.33 1013.80 1013.31 1012.93 1012.56
1012.93 1013.48 1014.26 1015.51 1016.28 1016.86 1017.22 1017.96 1018.52 1019.07 1019.37 1019.62 1019.87 1020.11 1020.38 1020.61 1020.89 1021.02 1021.18 1021.34 1021.51 1021.51 1021.30 1020.53 1020.27 1020.00 1019.73 1019.31 1018.88 1018.49 1018.03 1017.46 1016.91 1016.28 1015.72 1015.10 1014.56 1013.93 1013.54 1013.01 1012.60 1012.10 1011.57
1012.98 1013.63 1014.67 1015.46 1016.43 1016.69 1017.52 1017.96 1018.48 1018.95 1019.24 1019.50 1019.68 1019.98 1020.26 1020.43 1020.79 1020.86 1020.98 1021.09 1021.09 1021.01 1021.03 1020.34 1020.07 1019.84 1019.46 1018.94 1018.56 1018.02 1017.41 1016.79 1016.28 1015.71 1015.10 1014.38 1013.89 1013.40 1012.97 1012.45 1011.84 1011.23 1010.76
1013.26 1014.12 1015.03 1015.95 1016.53 1016.95 1017.52 1017.97 1018.58 1019.22 1019.52 1019.42 1019.65 1019.88 1020.09 1020.35 1020.58 1020.58 1020.63 1020.72 1020.61 1020.37 1020.36 1020.14 1019.52 1019.21 1018.81 1018.47 1017.84 1017.36 1016.86 1016.13 1015.55 1014.94 1014.34 1013.82 1013.24 1012.72 1012.19 1011.51 1010.97 1010.53 1009.99
1013.92 1014.92 1016.01 1016.52 1017.18 1017.08 1017.63 1018.32 1018.67 1019.19 1019.25 1019.88 1019.73 1019.77 1019.89 1020.02 1020.13 1020.21 1020.22 1020.12 1019.87 1019.93 1019.88 1019.70 1019.19 1018.83 1018.47 1017.70 1017.29 1016.78 1015.91 1015.40 1014.74 1014.15 1013.65 1013.14 1012.38 1011.84 1011.28 1010.91 1010.41 1009.87 1009.38
1014.90 1015.70 1016.76 1017.74 1018.05 1017.86 1018.22 1018.52 1019.10 1019.53 1019.76 1019.91 1019.74 1019.71 1019.73 1019.68 1019.66 1019.54 1019.39 1019.44 1019.50 1019.46 1019.30 1019.13 1018.89 1018.48 1017.79 1017.17 1016.82 1016.14 1015.41 1014.65 1013.95 1013.38 1012.63 1012.21 1011.73 1011.43 1010.66 1010.17 1009.61 1009.03 1008.42
1015.71 1016.35 1016.88 1017.72 1018.13 1018.76 1018.80 1019.02 1019.19 1019.62 1020.00 1019.91 1019.74 1019.54 1019.50 1019.42 1019.26 1019.06 1018.94 1018.82 1018.73 1018.55 1018.50 1018.59 1018.26 1017.76 1017.12 1016.70 1016.16 1015.61 1014.96 1014.26 1012.64 1012.34 1012.02 1011.41 1011.06 1010.36 1009.67 1009.29 1008.62 1007.77 1007.02
1017.05 1017.52 1017.93 1018.16 1018.83 1019.10 1019.34 1019.06 1019.42 1019.80 1019.79 1019.70 1019.48 1019.42 1019.34 1019.09 1018.90 1018.76 1018.57 1018.32 1018.13 1017.98 1017.77 1017.53 1017.30 1017.02 1016.46 1015.99 1015.54 1014.87 1014.31 1013.67 1012.84 1011.91 1011.67 1010.39 1010.11 1009.32 1008.71 1008.06 1007.49 1006.70 1005.91
1017.40 1017.76 1018.12 1018.36 1018.75 1019.44 1019.24 1019.41 1019.66 1019.71 1019.58 1019.44 1019.36 1019.31 1019.17 1018.98 1018.75 1018.27 1017.93 1017.86 1017.80 1017.58 1017.36 1017.07 1016.52 1015.90 1015.46 1014.89 1014.57 1014.08 1013.44 1012.84 1012.25 1011.58 1011.18 1009.86 1009.14 1008.29 1007.73 1007.13 1006.47 1005.49 1004.78
1017.88 1018.38 1018.37 1018.50 1018.75 1019.35 1019.51 1019.46 1019.47 1019.41 1019.43 1019.41 1019.24 1019.09 1019.00 1018.66 1018.28 1017.82 1017.48 1017.42 1017.23 1016.89 1016.51 1015.95 1015.31 1014.86 1014.46 1014.01 1013.66 1013.35 1013.05 1012.66 1011.50 1010.79 1010.23 1009.72 1008.34 1007.46 1007.06 1005.91 1005.14 1004.31 1003.72
1017.88 1018.21 1018.63 1018.70 1019.16 1019.40 1019.18 1019.07 1019.07 1019.18 1019.31 1019.33 1019.30 1019.06 1018.74 1018.34 1017.88 1017.38 1016.98 1016.85 1016.60 1016.29 1015.74 1015.25 1014.88 1014.52 1014.20 1013.92 1013.24 1013.13 1012.83 1012.36 1011.39 1010.03 1009.18 1009.26 1008.27 1007.77 1005.48 1004.57 1003.93 1003.59 1003.07
Thickness
5682 5681 5678 5674 5672 5669 5666 5664 5662 5660 5659 5658 5656 5655 5653 5652 5648 5646 5643 5643 5638 5638 5635 5633 5631 5630 5629 5627 5627 5626 5624 5622 5622 5622 5622 5621 5622 5623 5624 5625 5626 5628 5628
5681 5677 5673 5670 5667 5666 5663 5659 5656 5654 5651 5651 5650 5648 5645 5643 5640 5638 5636 5633 5629 5628 5627 5623 5621 5620 5620 5618 5618 5617 5616 5614 5614 5614 5614 5613 5613 5615 5615 5616 5618 5619 5620
5678 5673 5668 5663 5661 5659 5655 5654 5650 5647 5644 5643 5642 5639 5637 5636 5634 5630 5627 5624 5621 5620 5618 5614 5612 5611 5610 5610 5610 5608 5607 5606 5605 5604 5604 5604 5604 5605 5606 5608 5609 5609 5610
5675 5668 5663 5659 5657 5652 5647 5644 5642 5637 5635 5633 5631 5630 5630 5628 5625 5623 5619 5616 5614 5611 5609 5606 5604 5602 5600 5600 5600 5599 5598 5596 5594 5593 5593 5593 5593 5594 5595 5597 5597 5599 5599
5669 5665 5660 5656 5652 5646 5640 5638 5632 5629 5624 5623 5624 5622 5621 5620 5618 5615 5611 5609 5608 5604 5600 5598 5594 5593 5590 5589 5588 5587 5586 5585 5583 5582 5582 5582 5582 5582 5583 5584 5585 5586 5587
5665 5661 5655 5650 5645 5640 5634 5631 5626 5619 5615 5614 5615 5613 5611 5612 5610 5607 5604 5601 5597 5595 5593 5589 5585 5581 5580 5577 5575 5574 5573 5572 5571 5570 5570 5570 5569 5570 5570 5571 5571 5572 5574
5662 5656 5650 5645 5639 5634 5629 5625 5618 5612 5606 5605 5603 5600 5599 5599 5599 5599 5596 5592 5589 5586 5582 5578 5574 5571 5569 5567 5564 5562 5562 5559 5557 5556 5556 5557 5557 5557 5558 5558 5558 5559 5560
5656 5653 5646 5639 5633 5628 5622 5618 5614 5604 5598 5596 5592 5586 5586 5586 5587 5586 5584 5582 5578 5574 5570 5566 5562 5560 5558 5556 5553 5552 5549 5546 5544 5544 5543 5543 5543 5543 5543 5544 5545 5547 5548
5649 5648 5640 5634 5628 5622 5616 5612 5607 5602 5592 5586 5585 5583 5575 5574 5567 5573 5572 5569 5566 5562 5557 5553 5550 5548 5546 5543 5542 5540 5536 5533 5532 5531 5529 5528 5527 5528 5529 5530 5532 5533 5534
5644 5638 5631 5626 5620 5614 5608 5605 5600 5594 5589 5581 5576 5575 5570 5566 5559 5557 5557 5556 5552 5549 5544 5541 5538 5535 5532 5530 5529 5526 5522 5520 5518 5515 5514 5512 5511 5511 5512 5514 5515 5516 5515
5634 5632 5621 5617 5613 5607 5602 5598 5592 5589 5582 5575 5569 5563 5559 5555 5550 5542 5538 5538 5538 5537 5533 5528 5525 5523 5520 5518 5515 5512 5508 5504 5501 5499 5498 5497 5495 5495 5496 5498 5497 5496 5494
5623 5620 5614 5609 5606 5599 5594 5589 5584 5580 5573 5567 5562 5556 5551 5545 5537 5531 5525 5523 5523 5525 5521 5516 5512 5508 5505 5503 5500 5497 5494 5491 5488 5486 5484 5482 5480 5480 5481 5480 5477 5476 5474
5616 5613 5607 5602 5597 5590 5585 5580 5575 5570 5563 5557 5551 5544 5539 5534 5528 5522 5515 5511 5508 5511 5509 5505 5501 5495 5491 5486 5482 5478 5476 5473 5471 5469 5467 5465 5464 5464 5463 5459 5457 5455 5453
5616 5606 5599 5591 5585 5579 5576 5570 5565 5560 5552 5547 5542 5535 5528 5522 5516 5510 5504 5497 5491 5490 5493 5491 5490 5483 5477 5472 5468 5464 5461 5457 5454 5452 5450 5449 5446 5443 5440 5437 5435 5432 5429
5601 5597 5590 5581 5573 5569 5566 5562 5555 5549 5542 5536 5531 5524 5517 5511 5504 5498 5492 5485 5476 5473 5480 5477 5473 5471 5465 5459 5453 5449 5445 5440 5437 5435 5433 5430 5426 5422 5418 5415 5411 5404 5398
5589 5588 5579 5571 5566 5559 5556 5550 5543 5537 5531 5525 5520 5513 5507 5500 5492 5486 5480 5474 5466 5459 5456 5460 5458 5454 5450 5445 5440 5435 5430 5426 5422 5420 5415 5410 5404 5401 5394 5391 5383 5375 5368
5581 5577 5572 5562 5556 5551 5547 5539 5532 5525 5520 5515 5509 5502 5495 5488 5480 5474 5468 5461 5454 5446 5443 5446 5439 5435 5431 5426 5424 5420 5415 5412 5407 5401 5394 5389 5382 5375 5367 5359 5350 5345 5341
5571 5568 5560 5556 5546 5543 5535 5529 5523 5516 5510 5505 5499 5491 5484 5478 5468 5462 5455 5449 5442 5435 5428 5430 5425 5418 5413 5409 5405 5402 5397 5392 5384 5376 5368 5363 5354 5343 5336 5330 5328 5328 5327
5560 5555 5549 5542 5540 5533 5526 5520 5511 5502 5496 5493 5486 5479 5472 5464 5456 5449 5443 5435 5429 5425 5417 5410 5411 5405 5399 5392 5390 5385 5378 5371 5361 5350 5343 5334 5326 5322 5319 5319 5319 5319 5320
5546 5540 5532 5528 5523 5522 5515 5506 5498 5490 5486 5476 5473 5467 5460 5453 5445 5437 5430 5424 5420 5411 5402 5397 5394 5388 5382 5379 5371 5365 5365 5350 5342 5326 5318 5315 5316 5313 5310 5309 5309 5309 5310
5529 5524 5517 5508 5506 5505 5499 5492 5484 5478 5471 5464 5459 5454 5447 5441 5434 5428 5421 5413 5405 5396 5388 5381 5377 5371 5366 5360 5351 5347 5340 5333 5322 5310 5310 5310 5305 5301 5298 5296 5296 5298 5300
5517 5511 5505 5498 5494 5488 5484 5479 5473 5464 5455 5450 5447 5441 5434 5428 5421 5416 5409 5402 5395 5383 5371 5361 5360 5354 5347 5337 5330 5322 5314 5307 5317 5301 5300 5302 5294 5297 5292 5287 5286 5287 5291
5498 5495 5490 5489 5480 5472 5468 5467 5458 5450 5445 5439 5435 5428 5422 5416 5409 5402 5396 5390 5382 5372 5361 5352 5345 5334 5327 5317 5310 5300 5294 5294 5295 5293 5288 5299 5288 5291 5284 5282 5280 5279 5283
5488 5483 5482 5478 5470 5460 5458 5452 5445 5438 5433 5428 5422 5415 5408 5401 5395 5392 5385 5376 5367 5356 5346 5335 5325 5318 5307 5298 5289 5288 5289 5290 5286 5281 5272 5285 5281 5283 5279 5275 5270 5273 5275
5476 5473 5471 5466 5458 5449 5445 5440 5433 5427 5421 5415 5409 5402 5395 5389 5383 5379 5372 5361 5352 5341 5330 5318 5308 5299 5291 5284 5280 5281 5276 5274 5277 5274 5264 5268 5273 5273 5270 5272 5267 5266 5266
5471 5466 5458 5454 5446 5437 5436 5431 5425 5417 5410 5403 5394 5387 5381 5376 5370 5364 5355 5346 5338 5327 5316 5304 5289 5279 5275 5272 5270 5266 5263 5261 5261 5269 5257 5256 5257 5251 5272 5271 5266 5259 5258